| time (UTC) | temp F | wind direction | speed knots | gust knots | rain 1hr in | rain 24hr in | rain mn in | humidity % | barometer mb |
| 20260507075817 | 49 | 309 | 0.9 | 4.3 | 0.00 | 0.41 | 0.00 | 73 | 1009.5 |
| 20260507075315 | 49 | 279 | 1.7 | 5.2 | 0.00 | 0.41 | 0.00 | 74 | 1009.4 |
| 20260507075049 | 49 | 336 | 2.6 | 5.2 | 0.00 | 0.41 | 0.00 | 75 | 1009.5 |
| 20260507074322 | 49 | 211 | 0.9 | 7.0 | 0.00 | 0.41 | 0.00 | 76 | 1009.5 |
| 20260507073815 | 49 | 16 | 0.9 | 7.0 | 0.00 | 0.41 | 0.00 | 75 | 1009.5 |
| 20260507073317 | 49 | 267 | 1.7 | 5.2 | 0.00 | 0.41 | 0.00 | 77 | 1009.6 |
| 20260507073046 | 50 | 181 | 1.7 | 6.1 | 0.00 | 0.41 | 0.00 | 77 | 1009.4 |
| 20260507072528 | 50 | 242 | 2.6 | 6.1 | 0.00 | 0.41 | 0.00 | 79 | 1009.6 |
| 20260507071806 | 50 | 226 | 1.7 | 4.3 | 0.00 | 0.41 | 0.00 | 79 | 1009.6 |
| 20260507071304 | 50 | 186 | 1.7 | 4.3 | 0.00 | 0.41 | 0.00 | 82 | 1009.5 |
| 20260507070805 | 50 | 215 | 0.9 | 2.6 | 0.00 | 0.41 | 0.00 | 82 | 1009.6 |
| 20260507070302 | 50 | 310 | 0.9 | 2.6 | 0.00 | 0.41 | 0.00 | 83 | 1009.5 |
| 20260507065800 | 50 | 213 | 0.9 | 3.5 | 0.00 | 0.41 | 0.00 | 83 | 1009.4 |
| 20260507065257 | 50 | 352 | 1.7 | 4.3 | 0.00 | 0.41 | 0.00 | 84 | 1009.6 |
| 20260507064758 | 50 | 199 | 2.6 | 4.3 | 0.00 | 0.41 | 0.00 | 85 | 1009.5 |
| 20260507064516 | 50 | 286 | 0.0 | 5.2 | 0.00 | 0.41 | 0.00 | 85 | 1009.6 |
| 20260507063755 | 50 | 267 | 1.7 | 5.2 | 0.00 | 0.41 | 0.00 | 86 | 1009.6 |
| 20260507063255 | 50 | 286 | 0.0 | 6.1 | 0.00 | 0.41 | 0.00 | 86 | 1009.5 |
| 20260507062751 | 50 | 267 | 2.6 | 6.1 | 0.00 | 0.41 | 0.00 | 86 | 1009.5 |
| 20260507062250 | 50 | 251 | 1.7 | 4.3 | 0.00 | 0.41 | 0.00 | 86 | 1009.6 |
| 20260507061752 | 50 | 255 | 1.7 | 2.6 | 0.00 | 0.41 | 0.00 | 87 | 1009.7 |
| 20260507061528 | 51 | 224 | 0.9 | 4.3 | 0.00 | 0.41 | 0.00 | 86 | 1009.7 |
| 20260507061014 | 51 | 181 | 1.7 | 4.3 | 0.00 | 0.41 | 0.00 | 86 | 1009.6 |
| 20260507060245 | 51 | 300 | 1.7 | 4.3 | 0.00 | 0.41 | 0.00 | 86 | 1009.7 |
| 20260507055743 | 51 | 227 | 0.9 | 2.6 | 0.00 | 0.41 | 0.00 | 86 | 1009.6 |
| 20260507055510 | 51 | 281 | 0.0 | 3.5 | 0.00 | 0.41 | 0.00 | 86 | 1009.8 |
| 20260507054731 | 51 | 248 | 0.9 | 3.5 | 0.00 | 0.41 | 0.00 | 86 | 1009.8 |
| 20260507054231 | 51 | 221 | 0.9 | 2.6 | 0.00 | 0.41 | 0.00 | 85 | 1009.6 |
| 20260507053951 | 51 | 188 | 0.9 | 3.5 | 0.00 | 0.41 | 0.00 | 84 | 1009.6 |
| 20260507053450 | 51 | 230 | 1.7 | 3.5 | 0.00 | 0.41 | 0.00 | 83 | 1009.8 |
| 20260507052725 | 51 | 237 | 0.0 | 2.6 | 0.00 | 0.41 | 0.00 | 83 | 1009.7 |
| 20260507052221 | 51 | 201 | 1.7 | 3.5 | 0.00 | 0.41 | 0.00 | 83 | 1009.8 |
| 20260507051715 | 51 | 246 | 0.9 | 3.5 | 0.00 | 0.41 | 0.00 | 83 | 1009.6 |
| 20260507051218 | 51 | 78 | 0.0 | 6.1 | 0.00 | 0.41 | 0.00 | 83 | 1009.8 |
| 20260507050716 | 51 | 254 | 0.9 | 6.1 | 0.00 | 0.41 | 0.00 | 82 | 1009.8 |
| 20260507050214 | 51 | 302 | 1.7 | 2.6 | 0.00 | 0.41 | 0.00 | 82 | 1009.8 |
| 20260507045711 | 51 | 177 | 1.7 | 3.5 | 0.00 | 0.41 | 0.00 | 82 | 1009.7 |
| 20260507045436 | 51 | 355 | 0.9 | 3.5 | 0.00 | 0.41 | 0.00 | 82 | 1009.6 |
| 20260507044706 | 51 | 219 | 1.7 | 3.5 | 0.00 | 0.41 | 0.00 | 83 | 1009.9 |
| 20260507044206 | 51 | 261 | 0.0 | 3.5 | 0.00 | 0.41 | 0.00 | 83 | 1009.9 |
| 20260507043707 | 51 | 239 | 1.7 | 3.5 | 0.00 | 0.41 | 0.00 | 83 | 1009.9 |
| 20260507043429 | 51 | 250 | 1.7 | 2.6 | 0.00 | 0.41 | 0.00 | 83 | 1009.8 |
| 20260507042706 | 51 | 221 | 0.9 | 2.6 | 0.00 | 0.41 | 0.00 | 83 | 1009.6 |
| 20260507042206 | 51 | 270 | 0.0 | 2.6 | 0.00 | 0.41 | 0.00 | 83 | 1009.8 |
| 20260507041707 | 51 | 237 | 0.9 | 4.3 | 0.00 | 0.41 | 0.00 | 83 | 1009.9 |
| 20260507041438 | 51 | 302 | 1.7 | 7.0 | 0.00 | 0.41 | 0.00 | 83 | 1009.9 |
| 20260507040706 | 51 | 231 | 0.9 | 7.0 | 0.00 | 0.41 | 0.00 | 83 | 1009.7 |
| 20260507040206 | 51 | 188 | 2.6 | 4.3 | 0.00 | 0.41 | 0.00 | 84 | 1009.6 |
| 20260507035709 | 51 | 269 | 0.9 | 3.5 | 0.00 | 0.41 | 0.41 | 84 | 1009.4 |
| 20260507035208 | 51 | 299 | 0.9 | 3.5 | 0.00 | 0.41 | 0.41 | 84 | 1009.3 |
| 20260507034706 | 51 | 185 | 0.0 | 5.2 | 0.00 | 0.41 | 0.41 | 84 | 1009.1 |
| 20260507034208 | 51 | 210 | 3.5 | 5.2 | 0.00 | 0.41 | 0.41 | 84 | 1009.1 |
| 20260507033707 | 51 | 236 | 0.9 | 4.3 | 0.00 | 0.41 | 0.41 | 84 | 1009.2 |
| 20260507033206 | 51 | 53 | 1.7 | 5.2 | 0.00 | 0.41 | 0.41 | 84 | 1009.2 |
| 20260507032931 | 51 | 29 | 2.6 | 6.1 | 0.00 | 0.41 | 0.41 | 84 | 1009.4 |
| 20260507032207 | 51 | 46 | 1.7 | 6.1 | 0.00 | 0.41 | 0.41 | 84 | 1009.7 |
| 20260507031936 | 51 | 90 | 1.7 | 5.2 | 0.00 | 0.41 | 0.41 | 84 | 1009.7 |
| 20260507031206 | 52 | 63 | 0.9 | 6.1 | 0.00 | 0.41 | 0.41 | 84 | 1009.7 |
| 20260507030712 | 52 | 207 | 1.7 | 6.1 | 0.00 | 0.41 | 0.41 | 85 | 1009.5 |
| 20260507030201 | 52 | 38 | 2.6 | 3.5 | 0.00 | 0.41 | 0.41 | 85 | 1009.6 |
| 20260507025704 | 52 | 5 | 1.7 | 7.0 | 0.00 | 0.41 | 0.41 | 85 | 1009.5 |
| 20260507025201 | 52 | 288 | 2.6 | 11.3 | 0.00 | 0.41 | 0.41 | 84 | 1009.4 |
| 20260507024930 | 52 | 344 | 3.5 | 11.3 | 0.00 | 0.41 | 0.41 | 84 | 1009.3 |
| 20260507024201 | 52 | 250 | 3.5 | 6.1 | 0.00 | 0.41 | 0.41 | 85 | 1009.4 |
| 20260507023702 | 53 | 350 | 1.7 | 7.8 | 0.00 | 0.41 | 0.41 | 84 | 1009.3 |
| 20260507023201 | 53 | 51 | 3.5 | 7.8 | 0.00 | 0.41 | 0.41 | 85 | 1009.4 |
| 20260507022700 | 53 | 61 | 2.6 | 7.0 | 0.00 | 0.41 | 0.41 | 85 | 1009.2 |
| 20260507022202 | 53 | 134 | 2.6 | 7.0 | 0.00 | 0.41 | 0.41 | 85 | 1009.3 |
| 20260507021700 | 53 | 11 | 0.9 | 6.1 | 0.00 | 0.41 | 0.41 | 84 | 1009.1 |
| 20260507021217 | 53 | 28 | 1.7 | 7.0 | 0.00 | 0.41 | 0.41 | 84 | 1009.4 |
| 20260507020921 | 53 | 40 | 3.5 | 8.7 | 0.00 | 0.41 | 0.41 | 84 | 1009.4 |
| 20260507020210 | 53 | 329 | 2.6 | 12.2 | 0.00 | 0.41 | 0.41 | 84 | 1009.5 |
| 20260507015700 | 53 | 283 | 3.5 | 12.2 | 0.00 | 0.41 | 0.41 | 84 | 1009.4 |
| 20260507015200 | 53 | 296 | 1.7 | 10.4 | 0.00 | 0.41 | 0.41 | 84 | 1009.4 |
| 20260507014704 | 53 | 5 | 2.6 | 8.7 | 0.00 | 0.41 | 0.41 | 84 | 1009.4 |
| 20260507014201 | 53 | 326 | 2.6 | 6.1 | 0.00 | 0.41 | 0.41 | 84 | 1009.3 |
| 20260507013930 | 54 | 10 | 2.6 | 14.8 | 0.00 | 0.41 | 0.41 | 84 | 1009.4 |
| 20260507013200 | 54 | 57 | 2.6 | 14.8 | 0.00 | 0.41 | 0.41 | 85 | 1009.3 |
| 20260507012700 | 54 | 0 | 4.3 | 12.2 | 0.00 | 0.41 | 0.41 | 86 | 1009.4 |
| 20260507012430 | 54 | 16 | 3.5 | 12.2 | 0.00 | 0.41 | 0.41 | 87 | 1009.3 |
| 20260507011717 | 55 | 329 | 1.7 | 7.8 | 0.00 | 0.41 | 0.41 | 87 | 1009.3 |
| 20260507011201 | 55 | 238 | 3.5 | 13.9 | 0.00 | 0.41 | 0.41 | 88 | 1009.1 |
| 20260507010700 | 55 | 5 | 4.3 | 13.9 | 0.00 | 0.41 | 0.41 | 88 | 1009.0 |
| 20260507010446 | 55 | 318 | 3.5 | 9.6 | 0.00 | 0.41 | 0.41 | 88 | 1009.1 |
| 20260507010430 | 55 | 103 | 1.7 | 7.8 | 0.01 | 0.41 | 0.41 | 88 | 1009.0 |
| 20260507005156 | 56 | 166 | 3.5 | 7.8 | 0.01 | 0.41 | 0.41 | 87 | 1009.1 |
| 20260507004652 | 56 | 288 | 1.7 | 7.8 | 0.01 | 0.41 | 0.41 | 88 | 1008.9 |
| 20260507004428 | 56 | 318 | 2.6 | 7.8 | 0.01 | 0.41 | 0.41 | 88 | 1008.6 |
| 20260507003913 | 56 | 13 | 1.7 | 7.0 | 0.01 | 0.41 | 0.41 | 88 | 1008.5 |
| 20260507003148 | 56 | 42 | 2.6 | 8.7 | 0.01 | 0.41 | 0.41 | 88 | 1008.3 |
| 20260507002651 | 56 | 326 | 1.7 | 8.7 | 0.01 | 0.41 | 0.41 | 88 | 1008.4 |
| 20260507002150 | 56 | 12 | 3.5 | 10.4 | 0.01 | 0.41 | 0.41 | 87 | 1008.3 |
| 20260507001648 | 56 | 290 | 3.5 | 10.4 | 0.01 | 0.41 | 0.41 | 87 | 1008.3 |
| 20260507001147 | 57 | 355 | 2.6 | 13.9 | 0.01 | 0.41 | 0.41 | 87 | 1008.2 |
| 20260507000916 | 57 | 30 | 3.5 | 17.4 | 0.01 | 0.41 | 0.41 | 87 | 1008.2 |
| 20260507000146 | 58 | 344 | 5.2 | 17.4 | 0.01 | 0.41 | 0.41 | 87 | 1007.9 |
| 20260506235645 | 58 | 298 | 4.3 | 8.7 | 0.00 | 0.40 | 0.40 | 87 | 1007.8 |
| 20260506235144 | 59 | 59 | 3.5 | 8.7 | 0.00 | 0.40 | 0.40 | 88 | 1007.4 |
| 20260506234646 | 60 | 63 | 1.7 | 5.2 | 0.00 | 0.40 | 0.40 | 89 | 1007.1 |
| 20260506234146 | 60 | 306 | 1.7 | 5.2 | 0.00 | 0.40 | 0.40 | 90 | 1007.0 |
| 20260506233644 | 60 | 289 | 1.7 | 5.2 | 0.00 | 0.40 | 0.40 | 89 | 1006.9 |
| 20260506233146 | 60 | 312 | 1.7 | 6.1 | 0.00 | 0.40 | 0.40 | 89 | 1006.9 |
| 20260506232643 | 60 | 274 | 1.7 | 6.1 | 0.00 | 0.40 | 0.40 | 88 | 1006.9 |
| 20260506232141 | 61 | 265 | 3.5 | 6.1 | 0.00 | 0.40 | 0.40 | 88 | 1006.9 |
| 20260506231909 | 61 | 241 | 2.6 | 7.8 | 0.00 | 0.40 | 0.40 | 88 | 1006.9 |
| 20260506231140 | 61 | 284 | 3.5 | 7.8 | 0.00 | 0.40 | 0.40 | 88 | 1007.0 |
| 20260506230640 | 61 | 323 | 3.5 | 7.0 | 0.00 | 0.40 | 0.40 | 88 | 1006.9 |
| 20260506230135 | 61 | 288 | 3.5 | 7.0 | 0.00 | 0.40 | 0.40 | 88 | 1006.8 |
| 20260506225633 | 61 | 216 | 3.5 | 7.0 | 0.00 | 0.40 | 0.40 | 89 | 1006.7 |
| 20260506225132 | 61 | 284 | 3.5 | 7.8 | 0.00 | 0.40 | 0.40 | 90 | 1006.6 |
| 20260506224851 | 62 | 278 | 3.5 | 7.8 | 0.00 | 0.40 | 0.40 | 91 | 1006.6 |
| 20260506224132 | 62 | 264 | 1.7 | 5.2 | 0.00 | 0.40 | 0.40 | 92 | 1006.6 |
| 20260506223639 | 62 | 287 | 2.6 | 6.1 | 0.00 | 0.40 | 0.40 | 93 | 1006.7 |
| 20260506223129 | 62 | 278 | 2.6 | 6.1 | 0.00 | 0.40 | 0.40 | 93 | 1006.6 |
| 20260506222633 | 62 | 257 | 2.6 | 6.1 | 0.00 | 0.40 | 0.40 | 93 | 1006.5 |
| 20260506222130 | 62 | 271 | 1.7 | 3.5 | 0.00 | 0.40 | 0.40 | 94 | 1006.6 |
| 20260506221627 | 62 | 269 | 1.7 | 3.5 | 0.01 | 0.40 | 0.40 | 94 | 1006.5 |
| 20260506221126 | 62 | 269 | 0.9 | 3.5 | 0.01 | 0.40 | 0.40 | 94 | 1006.4 |
| 20260506220625 | 62 | 275 | 1.7 | 5.2 | 0.02 | 0.40 | 0.40 | 94 | 1006.2 |
| 20260506220349 | 62 | 253 | 2.6 | 5.2 | 0.02 | 0.40 | 0.40 | 94 | 1006.1 |
| 20260506215620 | 62 | 266 | 1.7 | 2.6 | 0.02 | 0.40 | 0.40 | 94 | 1006.0 |
| 20260506215118 | 62 | 267 | 0.0 | 2.6 | 0.02 | 0.40 | 0.40 | 94 | 1006.2 |
| 20260506214837 | 62 | 263 | 0.9 | 5.2 | 0.02 | 0.40 | 0.40 | 94 | 1006.2 |
| 20260506214116 | 62 | 263 | 0.9 | 5.2 | 0.02 | 0.40 | 0.40 | 94 | 1006.1 |
| 20260506213617 | 62 | 290 | 1.7 | 3.5 | 0.02 | 0.40 | 0.40 | 93 | 1005.9 |
| 20260506213113 | 62 | 290 | 0.9 | 5.2 | 0.02 | 0.40 | 0.40 | 93 | 1005.9 |
| 20260506212613 | 62 | 308 | 0.9 | 5.2 | 0.02 | 0.40 | 0.40 | 93 | 1005.7 |
| 20260506212110 | 62 | 292 | 0.9 | 2.6 | 0.02 | 0.40 | 0.40 | 93 | 1005.7 |
| 20260506211609 | 63 | 283 | 0.9 | 3.5 | 0.01 | 0.39 | 0.39 | 92 | 1005.7 |
| 20260506211108 | 63 | 296 | 1.7 | 3.5 | 0.01 | 0.39 | 0.39 | 91 | 1005.6 |
| 20260506210607 | 63 | 267 | 2.6 | 6.1 | 0.00 | 0.38 | 0.38 | 91 | 1005.5 |
| 20260506210106 | 63 | 255 | 3.5 | 6.1 | 0.00 | 0.38 | 0.38 | 90 | 1005.5 |
| 20260506205605 | 64 | 194 | 1.7 | 3.5 | 0.00 | 0.38 | 0.38 | 89 | 1005.4 |
| 20260506205105 | 64 | 250 | 0.9 | 2.6 | 0.00 | 0.38 | 0.38 | 90 | 1005.3 |
| 20260506204604 | 64 | 265 | 1.7 | 4.3 | 0.00 | 0.38 | 0.38 | 89 | 1005.3 |
| 20260506204101 | 64 | 290 | 2.6 | 5.2 | 0.00 | 0.38 | 0.38 | 90 | 1005.3 |
| 20260506203603 | 64 | 241 | 1.7 | 5.2 | 0.00 | 0.38 | 0.38 | 90 | 1005.4 |
| 20260506203328 | 64 | 259 | 2.6 | 6.1 | 0.00 | 0.38 | 0.38 | 91 | 1005.2 |
| 20260506202559 | 64 | 221 | 1.7 | 6.1 | 0.00 | 0.38 | 0.38 | 91 | 1005.3 |
| 20260506202057 | 63 | 240 | 2.6 | 4.3 | 0.00 | 0.38 | 0.38 | 91 | 1005.2 |
| 20260506201825 | 63 | 207 | 2.6 | 7.0 | 0.00 | 0.38 | 0.38 | 91 | 1005.2 |
| 20260506201057 | 63 | 225 | 3.5 | 7.0 | 0.00 | 0.38 | 0.38 | 92 | 1005.3 |
| 20260506200556 | 63 | 255 | 2.6 | 5.2 | 0.00 | 0.38 | 0.38 | 92 | 1005.3 |
| 20260506200052 | 63 | 229 | 1.7 | 5.2 | 0.00 | 0.38 | 0.38 | 92 | 1005.4 |
| 20260506195554 | 63 | 218 | 2.6 | 5.2 | 0.00 | 0.38 | 0.38 | 93 | 1005.4 |
| 20260506195051 | 63 | 238 | 1.7 | 5.2 | 0.00 | 0.38 | 0.38 | 93 | 1005.5 |
| 20260506194548 | 63 | 290 | 1.7 | 4.3 | 0.00 | 0.38 | 0.38 | 94 | 1005.7 |
| 20260506194324 | 62 | 220 | 1.7 | 4.3 | 0.00 | 0.38 | 0.38 | 93 | 1005.6 |
| 20260506193545 | 62 | 273 | 1.7 | 7.0 | 0.00 | 0.38 | 0.38 | 93 | 1005.6 |
| 20260506193045 | 62 | 269 | 2.6 | 8.7 | 0.00 | 0.38 | 0.38 | 94 | 1005.6 |
| 20260506192546 | 62 | 296 | 2.6 | 8.7 | 0.00 | 0.38 | 0.38 | 94 | 1005.6 |
| 20260506192045 | 62 | 232 | 4.3 | 7.8 | 0.00 | 0.38 | 0.38 | 94 | 1005.7 |
| 20260506191545 | 62 | 236 | 3.5 | 7.8 | 0.00 | 0.38 | 0.38 | 94 | 1005.6 |
| 20260506191049 | 61 | 200 | 4.3 | 9.6 | 0.00 | 0.38 | 0.38 | 94 | 1005.6 |
| 20260506190543 | 61 | 279 | 3.5 | 9.6 | 0.01 | 0.38 | 0.38 | 95 | 1005.8 |
| 20260506190042 | 61 | 244 | 2.6 | 6.1 | 0.01 | 0.38 | 0.38 | 95 | 1005.8 |
| 20260506185541 | 61 | 225 | 2.6 | 7.0 | 0.01 | 0.38 | 0.38 | 95 | 1005.9 |
| 20260506185041 | 61 | 226 | 3.5 | 7.0 | 0.01 | 0.38 | 0.38 | 95 | 1005.9 |
| 20260506184806 | 61 | 190 | 3.5 | 7.0 | 0.01 | 0.38 | 0.38 | 96 | 1005.9 |
| 20260506184040 | 60 | 241 | 1.7 | 5.2 | 0.01 | 0.38 | 0.38 | 96 | 1006.0 |
| 20260506183540 | 60 | 246 | 1.7 | 5.2 | 0.01 | 0.38 | 0.38 | 96 | 1006.0 |
| 20260506183040 | 60 | 233 | 2.6 | 5.2 | 0.01 | 0.38 | 0.38 | 96 | 1006.0 |
| 20260506182540 | 60 | 262 | 2.6 | 5.2 | 0.02 | 0.38 | 0.38 | 96 | 1006.1 |
| 20260506182300 | 60 | 186 | 1.7 | 4.3 | 0.02 | 0.38 | 0.38 | 96 | 1006.0 |
| 20260506181542 | 60 | 192 | 2.6 | 4.3 | 0.02 | 0.38 | 0.38 | 96 | 1006.0 |
| 20260506181038 | 60 | 221 | 1.7 | 4.3 | 0.02 | 0.38 | 0.38 | 96 | 1006.1 |
| 20260506180539 | 60 | 273 | 0.9 | 2.6 | 0.02 | 0.37 | 0.37 | 96 | 1006.2 |
| 20260506180037 | 60 | 284 | 0.9 | 4.3 | 0.02 | 0.37 | 0.37 | 95 | 1006.3 |
| 20260506175537 | 60 | 257 | 3.5 | 4.3 | 0.03 | 0.37 | 0.37 | 95 | 1006.3 |
| 20260506175036 | 59 | 248 | 1.7 | 3.5 | 0.04 | 0.37 | 0.37 | 95 | 1006.2 |
| 20260506174536 | 60 | 275 | 1.7 | 4.3 | 0.04 | 0.37 | 0.37 | 95 | 1006.2 |
| 20260506174038 | 59 | 211 | 2.6 | 4.3 | 0.04 | 0.37 | 0.37 | 95 | 1006.2 |
| 20260506173535 | 59 | 263 | 1.7 | 2.6 | 0.04 | 0.37 | 0.37 | 95 | 1006.2 |
| 20260506173040 | 59 | 298 | 0.9 | 5.2 | 0.04 | 0.37 | 0.37 | 95 | 1006.2 |
| 20260506172541 | 59 | 230 | 3.5 | 5.2 | 0.03 | 0.36 | 0.36 | 94 | 1006.2 |
| 20260506172530 | 59 | 242 | 1.7 | 5.2 | 0.03 | 0.36 | 0.36 | 95 | 1006.2 |
| 20260506171522 | 59 | 276 | 0.9 | 6.1 | 0.03 | 0.36 | 0.36 | 94 | 1006.2 |
| 20260506171021 | 59 | 267 | 2.6 | 7.8 | 0.03 | 0.36 | 0.36 | 94 | 1006.3 |
| 20260506170522 | 59 | 262 | 3.5 | 8.7 | 0.02 | 0.35 | 0.35 | 94 | 1006.2 |
| 20260506170250 | 59 | 220 | 4.3 | 8.7 | 0.02 | 0.35 | 0.35 | 94 | 1006.3 |
| 20260506165518 | 60 | 259 | 2.6 | 8.7 | 0.01 | 0.34 | 0.34 | 93 | 1006.3 |
| 20260506165013 | 60 | 201 | 3.5 | 9.6 | 0.00 | 0.33 | 0.33 | 93 | 1006.4 |
| 20260506164516 | 60 | 256 | 4.3 | 9.6 | 0.00 | 0.33 | 0.33 | 93 | 1006.4 |
| 20260506164011 | 60 | 300 | 1.7 | 9.6 | 0.00 | 0.33 | 0.33 | 93 | 1006.4 |
| 20260506163740 | 60 | 245 | 4.3 | 9.6 | 0.00 | 0.33 | 0.33 | 93 | 1006.4 |
| 20260506163023 | 60 | 254 | 3.5 | 8.7 | 0.00 | 0.33 | 0.33 | 93 | 1006.3 |
| 20260506162507 | 60 | 249 | 2.6 | 8.7 | 0.00 | 0.33 | 0.33 | 93 | 1006.2 |
| 20260506162010 | 60 | 162 | 3.5 | 7.8 | 0.01 | 0.33 | 0.33 | 93 | 1006.3 |
| 20260506161502 | 60 | 261 | 2.6 | 7.8 | 0.01 | 0.33 | 0.33 | 93 | 1006.4 |
| 20260506161235 | 60 | 246 | 5.2 | 7.8 | 0.02 | 0.33 | 0.33 | 93 | 1006.4 |
| 20260506160503 | 60 | 262 | 2.6 | 10.4 | 0.03 | 0.33 | 0.33 | 93 | 1006.4 |
| 20260506160326 | 60 | 231 | 4.3 | 11.3 | 0.04 | 0.33 | 0.33 | 93 | 1006.4 |
| 20260506155735 | 60 | 260 | 3.5 | 11.3 | 0.06 | 0.33 | 0.33 | 93 | 1006.4 |
| 20260506155001 | 60 | 272 | 2.6 | 8.7 | 0.08 | 0.33 | 0.33 | 93 | 1006.3 |
| 20260506154500 | 60 | 192 | 1.7 | 9.6 | 0.09 | 0.33 | 0.33 | 93 | 1006.3 |
| 20260506154003 | 60 | 252 | 5.2 | 9.6 | 0.10 | 0.33 | 0.33 | 93 | 1006.3 |
| 20260506153502 | 60 | 218 | 3.5 | 9.6 | 0.10 | 0.33 | 0.33 | 93 | 1006.1 |
| 20260506153000 | 60 | 202 | 4.3 | 9.6 | 0.10 | 0.33 | 0.33 | 93 | 1006.1 |
| 20260506152459 | 60 | 218 | 4.3 | 9.6 | 0.11 | 0.33 | 0.33 | 93 | 1006.0 |
| 20260506151957 | 60 | 221 | 3.5 | 9.6 | 0.10 | 0.32 | 0.32 | 93 | 1006.0 |
| 20260506151456 | 60 | 190 | 5.2 | 9.6 | 0.11 | 0.32 | 0.32 | 93 | 1006.3 |
| 20260506150956 | 59 | 196 | 2.6 | 7.8 | 0.11 | 0.31 | 0.31 | 93 | 1006.3 |
| 20260506150731 | 59 | 242 | 2.6 | 13.0 | 0.11 | 0.30 | 0.30 | 93 | 1006.3 |
| 20260506145952 | 59 | 213 | 5.2 | 13.0 | 0.11 | 0.29 | 0.29 | 93 | 1006.3 |
| 20260506145721 | 59 | 204 | 2.6 | 8.7 | 0.11 | 0.27 | 0.27 | 93 | 1006.4 |
| 20260506145208 | 60 | 199 | 5.2 | 9.6 | 0.09 | 0.25 | 0.26 | 93 | 1006.7 |
| 20260506144445 | 60 | 248 | 6.1 | 9.6 | 0.09 | 0.24 | 0.24 | 93 | 1006.8 |
| 20260506144422 | 60 | 245 | 4.3 | 9.6 | 0.09 | 0.23 | 0.23 | 93 | 1007.1 |
| 20260506143447 | 60 | 274 | 2.6 | 7.0 | 0.10 | 0.23 | 0.23 | 93 | 1006.9 |
| 20260506142946 | 60 | 283 | 3.5 | 9.6 | 0.11 | 0.23 | 0.23 | 93 | 1006.8 |
| 20260506142449 | 60 | 252 | 3.5 | 9.6 | 0.10 | 0.22 | 0.22 | 93 | 1006.7 |
| 20260506142215 | 60 | 257 | 3.5 | 7.8 | 0.11 | 0.22 | 0.22 | 93 | 1006.5 |
| 20260506141448 | 60 | 199 | 2.6 | 8.7 | 0.10 | 0.21 | 0.21 | 93 | 1006.6 |
| 20260506140949 | 60 | 224 | 3.5 | 6.1 | 0.09 | 0.20 | 0.20 | 93 | 1006.5 |
| 20260506140446 | 59 | 217 | 2.6 | 7.0 | 0.08 | 0.19 | 0.19 | 93 | 1006.5 |
| 20260506135948 | 59 | 231 | 3.5 | 7.0 | 0.07 | 0.18 | 0.18 | 92 | 1006.4 |
| 20260506135446 | 60 | 162 | 2.6 | 6.1 | 0.06 | 0.16 | 0.16 | 93 | 1006.6 |
| 20260506135235 | 59 | 178 | 0.9 | 3.5 | 0.06 | 0.16 | 0.16 | 93 | 1006.7 |
| 20260506134446 | 59 | 254 | 0.9 | 3.5 | 0.06 | 0.15 | 0.15 | 92 | 1006.7 |
| 20260506133948 | 60 | 162 | 0.0 | 6.1 | 0.05 | 0.14 | 0.14 | 92 | 1006.7 |
| 20260506133450 | 60 | 228 | 2.6 | 6.1 | 0.05 | 0.13 | 0.13 | 92 | 1006.9 |
| 20260506132948 | 60 | 248 | 1.7 | 5.2 | 0.05 | 0.12 | 0.12 | 92 | 1007.0 |
| 20260506132447 | 60 | 273 | 1.7 | 5.2 | 0.06 | 0.12 | 0.12 | 92 | 1006.9 |
| 20260506131947 | 60 | 303 | 0.0 | 2.6 | 0.06 | 0.11 | 0.11 | 92 | 1006.9 |
| 20260506131438 | 60 | 267 | 0.9 | 2.6 | 0.07 | 0.11 | 0.11 | 92 | 1006.8 |
| 20260506130934 | 60 | 235 | 0.9 | 3.5 | 0.07 | 0.11 | 0.11 | 92 | 1006.9 |
| 20260506130431 | 60 | 296 | 0.9 | 4.3 | 0.08 | 0.11 | 0.11 | 92 | 1006.9 |
| 20260506125928 | 59 | 261 | 0.9 | 4.3 | 0.09 | 0.11 | 0.11 | 92 | 1006.9 |
| 20260506125426 | 59 | 240 | 1.7 | 3.5 | 0.08 | 0.10 | 0.10 | 92 | 1007.0 |
| 20260506124926 | 59 | 300 | 0.0 | 1.7 | 0.08 | 0.10 | 0.10 | 92 | 1006.9 |
| 20260506124650 | 59 | 184 | 0.0 | 2.6 | 0.07 | 0.09 | 0.09 | 92 | 1007.0 |
| 20260506124150 | 59 | 232 | 0.9 | 2.6 | 0.06 | 0.08 | 0.09 | 92 | 1007.2 |
| 20260506123417 | 59 | 223 | 0.0 | 2.6 | 0.06 | 0.08 | 0.08 | 92 | 1007.2 |
| 20260506122918 | 59 | 252 | 0.0 | 2.6 | 0.04 | 0.06 | 0.07 | 93 | 1007.3 |
| 20260506122415 | 59 | 20 | 0.0 | 0.0 | 0.05 | 0.06 | 0.06 | 93 | 1007.4 |
| 20260506121918 | 59 | 20 | 0.0 | 0.0 | 0.04 | 0.05 | 0.05 | 93 | 1007.4 |
| 20260506121415 | 59 | 20 | 0.0 | 0.0 | 0.03 | 0.04 | 0.04 | 92 | 1007.4 |
| 20260506121132 | 59 | 20 | 0.0 | 0.9 | 0.04 | 0.04 | 0.04 | 92 | 1007.6 |
| 20260506120410 | 59 | 20 | 0.0 | 1.7 | 0.03 | 0.03 | 0.03 | 92 | 1007.2 |
| 20260506115903 | 59 | 20 | 0.0 | 1.7 | 0.02 | 0.02 | 0.03 | 91 | 1007.2 |
| 20260506115404 | 60 | 20 | 0.0 | 1.7 | 0.02 | 0.02 | 0.02 | 91 | 1007.2 |
| 20260506114902 | 60 | 22 | 0.0 | 1.7 | 0.02 | 0.02 | 0.02 | 90 | 1007.1 |
| 20260506114403 | 60 | 61 | 0.0 | 1.7 | 0.02 | 0.02 | 0.02 | 89 | 1006.9 |
| 20260506113858 | 60 | 61 | 0.0 | 1.7 | 0.02 | 0.02 | 0.02 | 87 | 1006.7 |
| 20260506113356 | 60 | 61 | 0.0 | 1.7 | 0.02 | 0.02 | 0.02 | 86 | 1006.8 |
| 20260506112855 | 61 | 199 | 0.0 | 3.5 | 0.02 | 0.02 | 0.02 | 83 | 1006.8 |
| 20260506112630 | 62 | 194 | 0.0 | 3.5 | 0.01 | 0.01 | 0.01 | 81 | 1006.8 |
| 20260506111858 | 62 | 232 | 0.0 | 5.2 | 0.01 | 0.01 | 0.01 | 81 | 1006.8 |
| 20260506111356 | 62 | 266 | 0.0 | 5.2 | 0.01 | 0.01 | 0.01 | 79 | 1006.7 |
| 20260506110856 | 63 | 172 | 0.9 | 5.2 | 0.00 | 0.00 | 0.00 | 77 | 1006.7 |
| 20260506110355 | 63 | 221 | 0.9 | 4.3 | 0.00 | 0.00 | 0.00 | 74 | 1006.6 |
| 20260506105858 | 64 | 235 | 1.7 | 6.1 | 0.00 | 0.00 | 0.00 | 73 | 1006.7 |
| 20260506105356 | 64 | 267 | 2.6 | 7.8 | 0.00 | 0.00 | 0.00 | 71 | 1006.7 |
| 20260506104857 | 64 | 191 | 2.6 | 7.8 | 0.00 | 0.00 | 0.00 | 70 | 1006.5 |
| 20260506104355 | 64 | 278 | 0.9 | 5.2 | 0.00 | 0.00 | 0.00 | 70 | 1006.4 |
| 20260506104346 | 64 | 271 | 0.9 | 5.2 | 0.00 | 0.00 | 0.00 | 70 | 1006.4 |
| 20260506103347 | 64 | 261 | 0.9 | 3.5 | 0.00 | 0.00 | 0.00 | 69 | 1006.2 |
| 20260506102843 | 64 | 248 | 1.7 | 3.5 | 0.00 | 0.00 | 0.00 | 69 | 1006.3 |
| 20260506102340 | 65 | 240 | 0.0 | 3.5 | 0.00 | 0.00 | 0.00 | 69 | 1006.1 |
| 20260506101837 | 65 | 234 | 0.9 | 8.7 | 0.00 | 0.00 | 0.00 | 69 | 1006.1 |
| 20260506101604 | 64 | 218 | 1.7 | 8.7 | 0.00 | 0.00 | 0.00 | 69 | 1005.9 |
| 20260506101100 | 64 | 159 | 1.7 | 5.2 | 0.00 | 0.00 | 0.00 | 70 | 1005.8 |
| 20260506100330 | 64 | 134 | 1.7 | 6.1 | 0.00 | 0.00 | 0.00 | 69 | 1005.8 |
| 20260506095831 | 64 | 178 | 2.6 | 6.1 | 0.00 | 0.00 | 0.00 | 69 | 1006.0 |
| 20260506095325 | 64 | 175 | 1.7 | 3.5 | 0.00 | 0.00 | 0.00 | 68 | 1005.9 |
| 20260506094826 | 65 | 159 | 1.7 | 3.5 | 0.00 | 0.00 | 0.00 | 68 | 1006.0 |
| 20260506094816 | 65 | 165 | 0.0 | 3.5 | 0.00 | 0.00 | 0.00 | 67 | 1006.1 |
| 20260506093826 | 65 | 201 | 0.0 | 5.2 | 0.00 | 0.00 | 0.00 | 66 | 1006.0 |
| 20260506093815 | 65 | 188 | 0.9 | 5.2 | 0.00 | 0.00 | 0.00 | 65 | 1006.1 |
| 20260506092820 | 65 | 202 | 1.7 | 4.3 | 0.00 | 0.00 | 0.00 | 65 | 1006.1 |
| 20260506092321 | 65 | 269 | 0.0 | 3.5 | 0.00 | 0.00 | 0.00 | 64 | 1006.2 |
| 20260506091821 | 66 | 269 | 0.9 | 7.8 | 0.00 | 0.00 | 0.00 | 64 | 1006.3 |
| 20260506091545 | 66 | 204 | 3.5 | 7.8 | 0.00 | 0.00 | 0.00 | 63 | 1006.2 |
| 20260506090820 | 66 | 253 | 2.6 | 6.1 | 0.00 | 0.00 | 0.00 | 63 | 1006.3 |
| 20260506090317 | 66 | 271 | 1.7 | 3.5 | 0.00 | 0.00 | 0.00 | 63 | 1006.3 |
| 20260506085816 | 66 | 231 | 0.9 | 4.3 | 0.00 | 0.00 | 0.00 | 63 | 1006.3 |
| 20260506085312 | 66 | 222 | 2.6 | 4.3 | 0.00 | 0.00 | 0.00 | 63 | 1006.2 |
| 20260506084812 | 66 | 224 | 1.7 | 4.3 | 0.00 | 0.00 | 0.00 | 63 | 1006.3 |
| 20260506084313 | 65 | 213 | 0.9 | 3.5 | 0.00 | 0.00 | 0.00 | 63 | 1006.3 |
| 20260506084039 | 66 | 217 | 1.7 | 6.1 | 0.00 | 0.00 | 0.00 | 63 | 1006.2 |
| 20260506083307 | 66 | 247 | 0.9 | 6.1 | 0.00 | 0.00 | 0.00 | 62 | 1006.2 |
| 20260506082806 | 66 | 229 | 0.9 | 6.1 | 0.00 | 0.00 | 0.00 | 62 | 1006.2 |
| 20260506082312 | 66 | 224 | 2.6 | 6.1 | 0.00 | 0.00 | 0.00 | 62 | 1006.3 |
| 20260506081807 | 65 | 214 | 1.7 | 4.3 | 0.00 | 0.00 | 0.00 | 62 | 1006.2 |
| 20260506081306 | 65 | 190 | 0.9 | 4.3 | 0.00 | 0.00 | 0.00 | 62 | 1006.2 |
| 20260506080807 | 65 | 243 | 0.0 | 3.5 | 0.00 | 0.00 | 0.00 | 63 | 1006.3 |
| 20260506080306 | 64 | 196 | 0.0 | 3.5 | 0.00 | 0.00 | 0.00 | 63 | 1006.3 |